Time,TemperatureF,DewpointF,PressureIn,WindDirection,WindDirectionDegrees,WindSpeedMPH,WindSpeedGustMPH,Humidity,HourlyPrecipIn,Conditions,Clouds,dailyrainin,SoftwareType,DateUTC
2013-07-06 00:11:00,69.6,67.0,30.08,SSW,193,0.0,0.0,92,0.00,,,0.01,weatherlink.com 1.10,2013-07-06 04:11:00,
2013-07-06 00:26:00,69.4,67.0,30.08,SSW,193,0.0,0.0,92,0.00,,,0.00,weatherlink.com 1.10,2013-07-06 04:26:00,
2013-07-06 00:41:00,69.3,67.0,30.08,SSW,193,0.0,0.0,93,0.00,,,0.00,weatherlink.com 1.10,2013-07-06 04:41:00,
2013-07-06 00:56:00,69.1,67.0,30.08,SSW,193,0.0,0.0,93,0.00,,,0.00,weatherlink.com 1.10,2013-07-06 04:56:00,
2013-07-06 01:11:00,69.0,67.0,30.08,SSW,193,0.0,0.0,94,0.00,,,0.00,weatherlink.com 1.10,2013-07-06 05:11:00,
2013-07-06 01:26:00,68.9,67.0,30.08,SSW,194,0.0,0.0,94,0.00,,,0.00,weatherlink.com 1.10,2013-07-06 05:26:00,
2013-07-06 01:41:00,68.8,67.0,30.08,SSW,193,0.0,0.0,95,0.00,,,0.00,weatherlink.com 1.10,2013-07-06 05:41:00,
2013-07-06 01:56:00,68.8,67.0,30.08,SSW,193,0.0,0.0,95,0.00,,,0.00,weatherlink.com 1.10,2013-07-06 05:56:00,
2013-07-06 02:11:00,68.8,67.0,30.08,SSW,193,0.0,0.0,95,0.00,,,0.00,weatherlink.com 1.10,2013-07-06 06:11:00,
2013-07-06 02:26:00,68.9,68.0,30.07,SSW,193,0.0,0.0,95,0.00,,,0.00,weatherlink.com 1.10,2013-07-06 06:26:00,
2013-07-06 02:41:00,68.8,67.0,30.07,SW,225,0.0,1.0,95,0.00,,,0.00,weatherlink.com 1.10,2013-07-06 06:41:00,
2013-07-06 02:56:00,68.8,67.0,30.07,SSW,213,0.0,0.0,95,0.00,,,0.00,weatherlink.com 1.10,2013-07-06 06:56:00,
2013-07-06 03:11:00,68.6,67.0,30.07,South,190,0.0,1.0,95,0.00,,,0.00,weatherlink.com 1.10,2013-07-06 07:11:00,
2013-07-06 03:26:00,68.5,67.0,30.07,SE,145,0.0,1.0,95,0.00,,,0.00,weatherlink.com 1.10,2013-07-06 07:26:00,
2013-07-06 03:41:00,68.4,67.0,30.06,SSE,153,0.0,1.0,95,0.00,,,0.00,weatherlink.com 1.10,2013-07-06 07:41:00,
2013-07-06 03:56:00,68.4,67.0,30.06,SSE,149,0.0,1.0,96,0.00,,,0.00,weatherlink.com 1.10,2013-07-06 07:56:00,
2013-07-06 04:11:00,68.3,67.0,30.07,South,172,0.0,0.0,96,0.00,,,0.00,weatherlink.com 1.10,2013-07-06 08:11:00,
2013-07-06 04:26:00,68.3,67.0,30.07,South,172,0.0,0.0,96,0.00,,,0.00,weatherlink.com 1.10,2013-07-06 08:26:00,
2013-07-06 04:41:00,68.2,67.0,30.06,South,172,0.0,0.0,96,0.00,,,0.00,weatherlink.com 1.10,2013-07-06 08:41:00,
2013-07-06 04:56:00,68.1,67.0,30.06,South,184,0.0,1.0,96,0.00,,,0.00,weatherlink.com 1.10,2013-07-06 08:56:00,
2013-07-06 05:11:00,68.0,67.0,30.06,South,184,0.0,0.0,96,0.00,,,0.00,weatherlink.com 1.10,2013-07-06 09:11:00,
2013-07-06 05:27:00,68.0,67.0,30.05,South,184,0.0,0.0,97,0.00,,,0.00,weatherlink.com 1.10,2013-07-06 09:27:00,
2013-07-06 05:42:00,68.0,67.0,30.05,South,184,0.0,0.0,97,0.00,,,0.00,weatherlink.com 1.10,2013-07-06 09:42:00,
2013-07-06 05:57:00,68.0,67.0,30.06,South,184,0.0,0.0,97,0.00,,,0.00,weatherlink.com 1.10,2013-07-06 09:57:00,
2013-07-06 06:12:00,67.9,67.0,30.06,South,184,0.0,0.0,97,0.00,,,0.00,weatherlink.com 1.10,2013-07-06 10:12:00,
2013-07-06 06:27:00,67.7,67.0,30.07,South,184,0.0,0.0,97,0.00,,,0.00,weatherlink.com 1.10,2013-07-06 10:27:00,
2013-07-06 06:42:00,67.6,67.0,30.07,South,184,0.0,0.0,97,0.00,,,0.00,weatherlink.com 1.10,2013-07-06 10:42:00,
2013-07-06 06:57:00,67.7,67.0,30.07,SE,144,0.0,1.0,97,0.00,,,0.00,weatherlink.com 1.10,2013-07-06 10:57:00,
2013-07-06 07:12:00,67.9,67.0,30.07,SE,145,0.0,1.0,98,0.00,,,0.00,weatherlink.com 1.10,2013-07-06 11:12:00,
2013-07-06 07:27:00,68.2,68.0,30.07,South,190,0.0,3.0,98,0.00,,,0.00,weatherlink.com 1.10,2013-07-06 11:27:00,
2013-07-06 07:42:00,68.5,68.0,30.07,West,275,0.0,2.0,98,0.00,,,0.00,weatherlink.com 1.10,2013-07-06 11:42:00,
2013-07-06 07:57:00,68.8,68.0,30.07,SSW,209,0.0,1.0,98,0.00,,,0.00,weatherlink.com 1.10,2013-07-06 11:57:00,
2013-07-06 08:12:00,69.2,69.0,30.08,South,177,0.0,1.0,98,0.00,,,0.00,weatherlink.com 1.10,2013-07-06 12:12:00,
2013-07-06 08:27:00,69.8,69.0,30.07,SSE,147,0.0,2.0,98,0.00,,,0.00,weatherlink.com 1.10,2013-07-06 12:27:00,
2013-07-06 08:42:00,70.5,70.0,30.07,East,96,0.0,2.0,97,0.00,,,0.00,weatherlink.com 1.10,2013-07-06 12:42:00,
2013-07-06 08:57:00,71.3,70.0,30.07,West,280,0.0,1.0,97,0.00,,,0.00,weatherlink.com 1.10,2013-07-06 12:57:00,
2013-07-06 09:12:00,71.7,70.0,30.07,South,186,0.0,3.0,95,0.00,,,0.00,weatherlink.com 1.10,2013-07-06 13:12:00,
2013-07-06 09:27:00,71.9,71.0,30.07,South,182,0.0,2.0,95,0.00,,,0.00,weatherlink.com 1.10,2013-07-06 13:27:00,
2013-07-06 09:42:00,72.1,70.0,30.08,South,186,0.0,1.0,94,0.00,,,0.00,weatherlink.com 1.10,2013-07-06 13:42:00,
2013-07-06 09:57:00,72.4,70.0,30.07,South,171,0.0,1.0,93,0.00,,,0.00,weatherlink.com 1.10,2013-07-06 13:57:00,
2013-07-06 10:12:00,72.9,71.0,30.07,SSW,205,0.0,1.0,93,0.00,,,0.00,weatherlink.com 1.10,2013-07-06 14:12:00,
2013-07-06 10:27:00,73.1,71.0,30.06,WNW,285,0.0,2.0,92,0.00,,,0.00,weatherlink.com 1.10,2013-07-06 14:27:00,
2013-07-06 10:42:00,73.4,71.0,30.06,SSE,148,0.0,1.0,91,0.00,,,0.00,weatherlink.com 1.10,2013-07-06 14:42:00,
2013-07-06 10:57:00,73.6,71.0,30.06,South,183,0.0,1.0,92,0.00,,,0.00,weatherlink.com 1.10,2013-07-06 14:57:00,
2013-07-06 11:12:00,73.5,71.0,30.06,ESE,109,0.0,3.0,93,0.00,,,0.00,weatherlink.com 1.10,2013-07-06 15:12:00,
2013-07-06 11:27:00,72.8,71.0,30.07,South,185,3.0,5.0,93,0.00,,,0.00,weatherlink.com 1.10,2013-07-06 15:27:00,
2013-07-06 11:42:00,72.1,70.0,30.06,NNE,32,0.0,2.0,94,0.00,,,0.00,weatherlink.com 1.10,2013-07-06 15:42:00,
2013-07-06 11:57:00,72.1,70.0,30.07,SSW,204,1.0,1.0,94,0.00,,,0.00,weatherlink.com 1.10,2013-07-06 15:57:00,
2013-07-06 12:12:00,72.1,70.0,30.06,South,175,0.0,2.0,92,0.00,,,0.00,weatherlink.com 1.10,2013-07-06 16:12:00,
2013-07-06 12:42:00,73.1,70.0,30.06,East,93,0.0,1.0,90,0.00,,,0.00,weatherlink.com 1.10,2013-07-06 16:42:00,
2013-07-06 12:57:00,73.7,70.0,30.06,East,89,0.0,0.0,88,0.00,,,0.00,weatherlink.com 1.10,2013-07-06 16:57:00,
2013-07-06 13:12:00,73.9,70.0,30.06,SE,134,0.0,0.0,87,0.00,,,0.00,weatherlink.com 1.10,2013-07-06 17:12:00,
2013-07-06 13:27:00,74.2,71.0,30.05,SE,133,0.0,1.0,89,0.00,,,0.00,weatherlink.com 1.10,2013-07-06 17:27:00,
2013-07-06 13:42:00,73.8,71.0,30.05,SSW,201,0.0,1.0,90,0.00,,,0.00,weatherlink.com 1.10,2013-07-06 17:42:00,
2013-07-06 14:27:00,72.1,70.0,30.03,NE,44,0.0,1.0,92,0.00,,,0.00,weatherlink.com 1.10,2013-07-06 18:27:00,
2013-07-06 15:28:00,77.6,71.0,30.01,WNW,295,0.0,2.0,81,0.00,,,0.00,weatherlink.com 1.10,2013-07-06 19:28:00,
2013-07-06 15:43:00,78.7,72.0,30.01,SSE,161,0.0,3.0,79,0.00,,,0.00,weatherlink.com 1.10,2013-07-06 19:43:00,
2013-07-06 15:58:00,79.8,72.0,30.00,WNW,300,0.0,3.0,76,0.00,,,0.00,weatherlink.com 1.10,2013-07-06 19:58:00,
2013-07-06 16:13:00,80.1,72.0,30.01,WNW,303,1.0,2.0,75,0.00,,,0.00,weatherlink.com 1.10,2013-07-06 20:13:00,
2013-07-06 16:43:00,78.4,74.0,30.00,WNW,298,0.0,4.0,86,0.00,,,0.00,weatherlink.com 1.10,2013-07-06 20:43:00,
2013-07-06 17:13:00,76.5,70.0,29.99,NNW,331,0.0,3.0,80,0.00,,,0.00,weatherlink.com 1.10,2013-07-06 21:13:00,
2013-07-06 17:28:00,76.4,71.0,30.00,West,273,0.0,2.0,84,0.00,,,0.00,weatherlink.com 1.10,2013-07-06 21:28:00,
2013-07-06 17:43:00,76.3,72.0,29.99,SW,234,0.0,1.0,85,0.00,,,0.00,weatherlink.com 1.10,2013-07-06 21:43:00,
2013-07-06 18:13:00,75.8,71.0,29.98,WNW,302,0.0,2.0,85,0.00,,,0.00,weatherlink.com 1.10,2013-07-06 22:13:00,
2013-07-06 18:58:00,74.3,71.0,29.98,NNW,332,0.0,0.0,88,0.00,,,0.00,weatherlink.com 1.10,2013-07-06 22:58:00,
2013-07-06 19:13:00,73.7,70.0,29.98,SE,138,0.0,0.0,88,0.00,,,0.00,weatherlink.com 1.10,2013-07-06 23:13:00,
2013-07-06 19:28:00,73.2,70.0,29.98,NW,319,0.0,1.0,90,0.00,,,0.00,weatherlink.com 1.10,2013-07-06 23:28:00,
2013-07-06 19:43:00,72.9,70.0,29.98,NW,319,0.0,0.0,91,0.00,,,0.00,weatherlink.com 1.10,2013-07-06 23:43:00,
2013-07-06 19:58:00,72.5,70.0,29.98,West,271,1.0,1.0,91,0.00,,,0.00,weatherlink.com 1.10,2013-07-06 23:58:00,
2013-07-06 20:28:00,72.4,70.0,29.99,WNW,290,0.0,2.0,91,0.00,,,0.00,weatherlink.com 1.10,2013-07-07 00:28:00,
2013-07-06 20:43:00,72.0,69.0,29.99,WNW,288,0.0,1.0,90,0.00,,,0.00,weatherlink.com 1.10,2013-07-07 00:43:00,
2013-07-06 20:58:00,71.6,69.0,29.99,WNW,288,0.0,0.0,91,0.00,,,0.00,weatherlink.com 1.10,2013-07-07 00:58:00,
2013-07-06 21:28:00,70.8,68.0,30.00,WNW,288,0.0,0.0,92,0.00,,,0.00,weatherlink.com 1.10,2013-07-07 01:28:00,
2013-07-06 21:43:00,70.4,68.0,30.00,WNW,288,0.0,0.0,93,0.00,,,0.00,weatherlink.com 1.10,2013-07-07 01:43:00,
2013-07-06 22:13:00,69.7,68.0,30.01,WNW,288,0.0,0.0,93,0.00,,,0.00,weatherlink.com 1.10,2013-07-07 02:13:00,
2013-07-06 23:43:00,69.5,69.0,30.03,SSW,211,0.0,1.0,97,0.00,,,0.00,weatherlink.com 1.10,2013-07-07 03:43:00,
2013-07-06 23:58:00,69.5,68.0,30.03,SE,144,0.0,1.0,96,0.00,,,0.00,weatherlink.com 1.10,2013-07-07 03:58:00,